sat.trackr.live / text

‹ back to catalog

STARLINK-5414

NORAD 54809 · 2022-175BD

PAYLOAD ACTIVE UNKNOWN

§ Identity

Operator
Country
US
Launch date
2022-12-17
Launch site
AFETR
Launch vehicle
Mass (kg)
RCS (m²)

Purposes: comms

External: N2YO · Heavens-Above · Gunter

§ Orbital elements

Epoch: 2026-09-20T11:50:38.620320Z

Period
93.85 min
Inclination
53.1593°
Eccentricity
0.0001129
Mean motion
15.34391088 rev/d
Perigee alt
462.0 km
Apogee alt
463.5 km
Semi-major
6,840.9 km
B*
1.7828e-5
RAAN
217.4384°
Arg perigee
87.8732°
Mean anomaly
272.2400°
Rev number
20,977

§ Raw data

STARLINK-54141 54809U 22175BD  26263.49350255  .00000226  00000+0  17828-4 0  99942 54809  53.1593 217.4384 0001129  87.8732 272.2400 15.34391088209775

JSON: /api/v1/satellites/54809 · /tle

For live sub-satellite position, see the globe view (requires WebGL).

§ Visibility from observer

Set your observer location to see the next 7 days of passes ≥ 10°. The values pass through the URL so the page stays shareable.

No JS? Fill the form by hand. The geolocation button needs JavaScript.